Terminal Aerodrome Forecast
Issued by NWS Portland, OR

Home | Current Version | Previous Version | Text Only | Print | Product List | Glossary On
Versions: 1 2 3 4 5 6 7 8 9 10 11 12
000
FTUS46 KPQR 311139
TAFEUG
TAF
KEUG 311139Z 3112/0112 VRB03KT P6SM SCT250
     FM312100 01011KT P6SM SCT250
     FM010500 35004KT P6SM SCT250=

USA.gov is the U.S. government's official web portal to all federal, state and local government web resources and services.